CES5401 ZUUU-ZSSS

Flight info

Callsign CES5401
Flight time 1h 57m
Altitude 37100
Route UBRAB9W UBRAB B213 WHA R343 PK
Aircraft B77W/H-SDE1E2E3FGHIJ2J3J4J5M1RWXY/LB1D1

Departure

Time 2026-05-08 12:02
Airport Chengdu Shuangliu International Airport (ZUUU)

Arrival

Time 2026-05-08 13:59
Airport Shanghai Hongqiao International Airport (ZSSS)
Time Latitude Longitude Altitude Speed Heading
2026-05-08 11:51 30.56320 103.94747 1652 ft 0 kts 201°
2026-05-08 11:56 30.56335 103.94755 1652 ft 3 kts 216°
2026-05-08 11:56 30.56349 103.94770 1652 ft 3 kts 233°
2026-05-08 11:56 30.56360 103.94790 1652 ft 3 kts 250°
2026-05-08 11:56 30.56364 103.94812 1652 ft 3 kts 268°
2026-05-08 11:57 30.56363 103.94834 1652 ft 3 kts 284°
2026-05-08 11:57 30.56361 103.94842 1652 ft 0 kts 292°
2026-05-08 11:58 30.56365 103.94831 1652 ft 5 kts 292°
2026-05-08 11:59 30.56437 103.94631 1652 ft 22 kts 292°
2026-05-08 11:59 30.56501 103.94449 1652 ft 12 kts 281°
2026-05-08 11:59 30.56484 103.94393 1652 ft 12 kts 221°
2026-05-08 11:59 30.56411 103.94352 1652 ft 12 kts 202°
2026-05-08 12:00 30.56335 103.94316 1652 ft 12 kts 202°
2026-05-08 12:00 30.56276 103.94258 1652 ft 12 kts 255°
2026-05-08 12:00 30.56297 103.94167 1652 ft 12 kts 290°
2026-05-08 12:00 30.56328 103.94079 1652 ft 12 kts 294°
2026-05-08 12:01 30.56392 103.94031 1652 ft 12 kts
2026-05-08 12:01 30.56472 103.94063 1653 ft 15 kts 21°
2026-05-08 12:01 30.56702 103.94170 1654 ft 68 kts 22°
2026-05-08 12:01 30.57395 103.94491 1651 ft 144 kts 21°
2026-05-08 12:02 30.58512 103.95018 1733 ft 193 kts 22°
2026-05-08 12:02 30.59753 103.95609 2414 ft 199 kts 22°
2026-05-08 12:02 30.61030 103.96207 3421 ft 187 kts 22°
2026-05-08 12:02 30.62206 103.96738 4264 ft 185 kts 23°
2026-05-08 12:03 30.63424 103.97283 4927 ft 190 kts 21°
2026-05-08 12:03 30.64683 103.97852 5471 ft 201 kts 21°
2026-05-08 12:03 30.66062 103.98489 5733 ft 227 kts 22°
2026-05-08 12:03 30.67634 103.99238 5898 ft 258 kts 24°
2026-05-08 12:04 30.69093 104.00518 6371 ft 271 kts 53°
2026-05-08 12:04 30.70047 104.02439 7066 ft 279 kts 62°
2026-05-08 12:04 30.70955 104.04455 7939 ft 283 kts 61°
2026-05-08 12:04 30.71892 104.06476 8868 ft 285 kts 60°
2026-05-08 12:05 30.72861 104.08500 9792 ft 288 kts 59°
2026-05-08 12:05 30.73860 104.10545 10545 ft 296 kts 59°
2026-05-08 12:05 30.74913 104.12688 10834 ft 324 kts 59°
2026-05-08 12:05 30.76162 104.14975 10999 ft 345 kts 47°
2026-05-08 12:06 30.78171 104.16612 11431 ft 362 kts 21°
2026-05-08 12:06 30.80554 104.17557 12303 ft 366 kts 18°
2026-05-08 12:06 30.82996 104.18489 13287 ft 372 kts 19°
2026-05-08 12:06 30.85485 104.19446 14226 ft 381 kts 19°
2026-05-08 12:07 30.88024 104.20429 15069 ft 388 kts 18°
2026-05-08 12:07 30.90607 104.21439 15950 ft 395 kts 18°
2026-05-08 12:07 30.93240 104.22477 16751 ft 403 kts 18°
2026-05-08 12:07 30.95928 104.23540 17517 ft 413 kts 17°
2026-05-08 12:08 30.98560 104.24899 18101 ft 421 kts 33°
2026-05-08 12:08 31.00690 104.27287 18768 ft 433 kts 52°
2026-05-08 12:08 31.02121 104.30410 19487 ft 441 kts 68°
2026-05-08 12:08 31.02874 104.33904 20180 ft 449 kts 83°
2026-05-08 12:09 31.02995 104.37564 20765 ft 457 kts 89°
2026-05-08 12:09 31.02939 104.41299 21368 ft 465 kts 91°
2026-05-08 12:09 31.02832 104.45042 22040 ft 470 kts 91°
2026-05-08 12:09 31.02728 104.48876 22717 ft 476 kts 91°
2026-05-08 12:10 31.02647 104.52760 23346 ft 482 kts 90°
2026-05-08 12:10 31.02589 104.56698 23899 ft 489 kts 90°
2026-05-08 12:10 31.02548 104.60688 24399 ft 495 kts 90°
2026-05-08 12:10 31.02514 104.64719 24930 ft 500 kts 90°
2026-05-08 12:11 31.02482 104.68781 25471 ft 504 kts 90°
2026-05-08 12:11 31.02447 104.72886 25990 ft 509 kts 90°
2026-05-08 12:11 31.02408 104.77032 26485 ft 514 kts 90°
2026-05-08 12:11 31.02366 104.81229 26974 ft 519 kts 90°
2026-05-08 12:12 31.02322 104.85452 27448 ft 524 kts 90°
2026-05-08 12:12 31.02276 104.89730 27905 ft 529 kts 91°
2026-05-08 12:12 31.02222 104.94028 28384 ft 532 kts 92°
2026-05-08 12:12 31.01761 104.98326 28709 ft 536 kts 107°
2026-05-08 12:13 31.00386 105.02348 29051 ft 535 kts 118°
2026-05-08 12:13 30.98722 105.06246 29405 ft 539 kts 119°
2026-05-08 12:13 30.97061 105.10130 29793 ft 543 kts 119°
2026-05-08 12:13 30.95407 105.14103 30212 ft 547 kts 118°
2026-05-08 12:14 30.93784 105.18114 30675 ft 547 kts 118°
2026-05-08 12:14 30.92190 105.22134 31114 ft 547 kts 117°
2026-05-08 12:14 30.90599 105.26170 31569 ft 548 kts 118°
2026-05-08 12:14 30.89003 105.30208 31984 ft 549 kts 118°
2026-05-08 12:15 30.87396 105.34249 32376 ft 550 kts 118°
2026-05-08 12:15 30.85857 105.38323 32700 ft 552 kts 112°
2026-05-08 12:15 30.85029 105.42720 32943 ft 561 kts 96°
2026-05-08 12:15 30.85159 105.47257 33332 ft 561 kts 78°
2026-05-08 12:16 30.86107 105.51642 33706 ft 558 kts 72°
2026-05-08 12:16 30.87141 105.55952 34019 ft 561 kts 72°
2026-05-08 12:16 30.88173 105.60335 34383 ft 562 kts 73°
2026-05-08 12:16 30.89166 105.64735 34730 ft 562 kts 73°
2026-05-08 12:17 30.90124 105.69154 35061 ft 564 kts 74°
2026-05-08 12:17 30.91063 105.73593 35364 ft 565 kts 74°
2026-05-08 12:17 30.91994 105.78045 35680 ft 567 kts 74°
2026-05-08 12:17 30.92930 105.82513 36002 ft 568 kts 74°
2026-05-08 12:18 30.93870 105.86976 36326 ft 568 kts 74°
2026-05-08 12:18 30.94815 105.91452 36623 ft 569 kts 74°
2026-05-08 12:18 30.95590 105.95986 36876 ft 573 kts 82°
2026-05-08 12:18 30.95832 106.00636 37089 ft 576 kts 91°
2026-05-08 12:19 30.95606 106.05300 37243 ft 579 kts 98°
2026-05-08 12:19 30.94897 106.09912 37274 ft 578 kts 108°
2026-05-08 12:19 30.92579 106.18829 37273 ft 573 kts 110°
2026-05-08 12:20 30.90450 106.27667 37274 ft 569 kts 108°
2026-05-08 12:20 30.88116 106.36428 37277 ft 562 kts 119°
2026-05-08 12:21 30.84107 106.44080 37306 ft 550 kts 136°
2026-05-08 12:21 30.78765 106.50327 37299 ft 543 kts 147°
2026-05-08 12:22 30.73136 106.56217 37294 ft 546 kts 146°
2026-05-08 12:22 30.67578 106.62269 37286 ft 548 kts 145°
2026-05-08 12:23 30.62032 106.68357 37285 ft 548 kts 145°
2026-05-08 12:23 30.56472 106.74381 37291 ft 546 kts 146°
2026-05-08 12:24 30.50904 106.80352 37290 ft 544 kts 146°
2026-05-08 12:24 30.45392 106.86273 37295 ft 543 kts 146°
2026-05-08 12:25 30.39856 106.92256 37306 ft 544 kts 146°
2026-05-08 12:25 30.34279 106.98190 37288 ft 542 kts 147°
2026-05-08 12:26 30.28646 107.03980 37308 ft 541 kts 147°
2026-05-08 12:26 30.23040 107.09712 37294 ft 541 kts 147°
2026-05-08 12:27 30.17408 107.15498 37305 ft 542 kts 147°
2026-05-08 12:27 30.11780 107.21336 37294 ft 546 kts 145°
2026-05-08 12:28 30.06363 107.27539 37297 ft 549 kts 143°
2026-05-08 12:28 30.01068 107.33917 37287 ft 558 kts 135°
2026-05-08 12:29 29.97021 107.41679 37310 ft 572 kts 118°
2026-05-08 12:29 29.94584 107.50467 37311 ft 577 kts 108°
2026-05-08 12:30 29.92427 107.59378 37283 ft 576 kts 110°
2026-05-08 12:30 29.90946 107.68443 37284 ft 579 kts 91°
2026-05-08 12:31 29.91711 107.77646 37289 ft 575 kts 72°
2026-05-08 12:31 29.94037 107.86431 37312 ft 573 kts 69°
2026-05-08 12:32 29.96403 107.95163 37308 ft 575 kts 70°
2026-05-08 12:32 29.98673 108.04003 37324 ft 575 kts 70°
2026-05-08 12:33 30.00898 108.12879 37308 ft 575 kts 70°
2026-05-08 12:33 30.03122 108.21739 37318 ft 575 kts 70°
2026-05-08 12:34 30.05351 108.30608 37324 ft 574 kts 70°
2026-05-08 12:34 30.07564 108.39468 37325 ft 574 kts 71°
2026-05-08 12:35 30.09756 108.48325 37322 ft 574 kts 71°
2026-05-08 12:35 30.11946 108.57186 37325 ft 573 kts 70°
2026-05-08 12:36 30.14400 108.65867 37330 ft 572 kts 67°
2026-05-08 12:36 30.17032 108.74555 37336 ft 572 kts 67°
2026-05-08 12:37 30.19588 108.83281 37319 ft 573 kts 68°
2026-05-08 12:37 30.22104 108.92015 37328 ft 572 kts 68°
2026-05-08 12:38 30.24433 109.00848 37321 ft 576 kts 71°
2026-05-08 12:38 30.26540 109.09738 37320 ft 577 kts 71°
2026-05-08 12:39 30.28708 109.18667 37328 ft 577 kts 71°
2026-05-08 12:39 30.30911 109.27603 37324 ft 577 kts 71°
2026-05-08 12:40 30.33069 109.36564 37336 ft 578 kts 71°
2026-05-08 12:40 30.35217 109.45530 37310 ft 578 kts 71°
2026-05-08 12:41 30.37363 109.54479 37313 ft 577 kts 71°
2026-05-08 12:41 30.39361 109.63479 37314 ft 578 kts 77°
2026-05-08 12:42 30.40699 109.72662 37321 ft 578 kts 79°
2026-05-08 12:42 30.41986 109.81811 37315 ft 579 kts 78°
2026-05-08 12:43 30.43309 109.90990 37354 ft 576 kts 78°
2026-05-08 12:43 30.44648 110.00156 37287 ft 577 kts 78°
2026-05-08 12:44 30.45979 110.09318 37322 ft 577 kts 78°
2026-05-08 12:44 30.47303 110.18491 37341 ft 577 kts 78°
2026-05-08 12:45 30.48621 110.27684 37298 ft 580 kts 79°
2026-05-08 12:45 30.49936 110.36896 37306 ft 578 kts 78°
2026-05-08 12:46 30.51239 110.46092 37317 ft 577 kts 78°
2026-05-08 12:46 30.52538 110.55291 37298 ft 577 kts 78°
2026-05-08 12:47 30.53612 110.62932 37291 ft 578 kts 78°
2026-05-08 12:47 30.54898 110.72130 37297 ft 578 kts 78°
2026-05-08 12:48 30.56175 110.81329 37302 ft 578 kts 79°
2026-05-08 12:48 30.57449 110.90523 37278 ft 576 kts 79°
2026-05-08 12:49 30.58717 110.99735 37319 ft 580 kts 79°
2026-05-08 12:49 30.59982 111.08983 37281 ft 578 kts 79°
2026-05-08 12:50 30.61235 111.18189 37274 ft 576 kts 79°
2026-05-08 12:50 30.62468 111.27301 37279 ft 575 kts 79°
2026-05-08 12:51 30.64306 111.41060 37276 ft 574 kts 79°
2026-05-08 12:52 30.65412 111.50250 37271 ft 576 kts 84°
2026-05-08 12:52 30.66108 111.64209 37270 ft 578 kts 85°
2026-05-08 12:53 30.66600 111.73526 37273 ft 579 kts 85°
2026-05-08 12:53 30.67059 111.82885 37280 ft 585 kts 85°
2026-05-08 12:54 30.67511 111.92344 37286 ft 595 kts 85°
2026-05-08 12:54 30.68024 112.02016 37282 ft 603 kts 84°
2026-05-08 12:55 30.68707 112.11764 37274 ft 607 kts 83°
2026-05-08 12:55 30.69413 112.21544 37269 ft 607 kts 84°
2026-05-08 12:56 30.70080 112.31329 37264 ft 607 kts 84°
2026-05-08 12:56 30.70719 112.41084 37265 ft 605 kts 84°
2026-05-08 12:57 30.71348 112.50818 37260 ft 603 kts 84°
2026-05-08 12:57 30.71969 112.60469 37260 ft 602 kts 84°
2026-05-08 12:58 30.72587 112.70164 37262 ft 601 kts 84°
2026-05-08 12:58 30.73197 112.79844 37267 ft 600 kts 84°
2026-05-08 12:59 30.73799 112.89534 37262 ft 600 kts 84°
2026-05-08 12:59 30.74394 112.99212 37264 ft 601 kts 84°
2026-05-08 13:00 30.74983 113.08910 37260 ft 601 kts 84°
2026-05-08 13:00 30.75521 113.18611 37260 ft 602 kts 86°
2026-05-08 13:01 30.75771 113.28344 37261 ft 602 kts 88°
2026-05-08 13:01 30.75944 113.38013 37255 ft 602 kts 88°
2026-05-08 13:02 30.76163 113.47751 37252 ft 603 kts 87°
2026-05-08 13:02 30.76409 113.57490 37254 ft 603 kts 87°
2026-05-08 13:03 30.76647 113.67236 37251 ft 603 kts 87°
2026-05-08 13:03 30.76872 113.76981 37251 ft 603 kts 88°
2026-05-08 13:04 30.77087 113.86718 37256 ft 603 kts 88°
2026-05-08 13:04 30.77297 113.96466 37246 ft 603 kts 88°
2026-05-08 13:05 30.77554 114.06208 37261 ft 602 kts 86°
2026-05-08 13:05 30.78210 114.15901 37261 ft 600 kts 79°
2026-05-08 13:06 30.79944 114.25364 37266 ft 596 kts 70°
2026-05-08 13:06 30.82726 114.34381 37255 ft 591 kts 63°
2026-05-08 13:07 30.85724 114.43302 37254 ft 592 kts 65°
2026-05-08 13:07 30.88609 114.52299 37246 ft 593 kts 65°
2026-05-08 13:08 30.91494 114.61232 37245 ft 593 kts 65°
2026-05-08 13:08 30.94399 114.70223 37250 ft 593 kts 65°
2026-05-08 13:09 30.97296 114.79225 37235 ft 593 kts 65°
2026-05-08 13:09 31.00187 114.88241 37235 ft 594 kts 65°
2026-05-08 13:10 31.03074 114.97255 37243 ft 593 kts 65°
2026-05-08 13:10 31.05980 115.06266 37250 ft 593 kts 65°
2026-05-08 13:11 31.08882 115.15284 37252 ft 594 kts 65°
2026-05-08 13:11 31.11770 115.24315 37266 ft 594 kts 65°
2026-05-08 13:12 31.14596 115.33357 37263 ft 592 kts 65°
2026-05-08 13:12 31.17511 115.42352 37258 ft 592 kts 65°
2026-05-08 13:13 31.20440 115.51352 37267 ft 593 kts 65°
2026-05-08 13:13 31.23324 115.60316 37277 ft 593 kts 65°
2026-05-08 13:14 31.26213 115.69354 37272 ft 594 kts 65°
2026-05-08 13:14 31.29104 115.78408 37272 ft 594 kts 65°
2026-05-08 13:15 31.31991 115.87443 37278 ft 593 kts 65°
2026-05-08 13:15 31.34906 115.96459 37275 ft 592 kts 64°
2026-05-08 13:16 31.37850 116.05450 37268 ft 591 kts 64°
2026-05-08 13:16 31.40777 116.14433 37270 ft 589 kts 65°
2026-05-08 13:17 31.43683 116.23407 37276 ft 590 kts 65°
2026-05-08 13:17 31.46586 116.32403 37267 ft 590 kts 65°
2026-05-08 13:18 31.49486 116.41412 37271 ft 591 kts 65°
2026-05-08 13:18 31.52360 116.50362 37268 ft 591 kts 65°
2026-05-08 13:19 31.55252 116.59397 37271 ft 591 kts 65°
2026-05-08 13:19 31.58138 116.68437 37264 ft 592 kts 65°
2026-05-08 13:20 31.61017 116.77480 37270 ft 592 kts 65°
2026-05-08 13:20 31.63889 116.86529 37263 ft 592 kts 65°
2026-05-08 13:21 31.66758 116.95594 37270 ft 592 kts 65°
2026-05-08 13:21 31.69610 117.04652 37272 ft 592 kts 66°
2026-05-08 13:22 31.72419 117.13734 37274 ft 592 kts 66°
2026-05-08 13:22 31.75193 117.22834 37269 ft 593 kts 69°
2026-05-08 13:23 31.76814 117.32374 37268 ft 598 kts 83°
2026-05-08 13:23 31.76882 117.42069 37264 ft 598 kts 95°
2026-05-08 13:24 31.76101 117.51805 37267 ft 598 kts 96°
2026-05-08 13:24 31.75315 117.61550 37268 ft 599 kts 96°
2026-05-08 13:25 31.74614 117.71300 37267 ft 599 kts 95°
2026-05-08 13:25 31.73935 117.81048 37262 ft 596 kts 95°
2026-05-08 13:26 31.73593 117.85872 36931 ft 589 kts 95°
2026-05-08 13:26 31.73251 117.90635 36422 ft 583 kts 96°
2026-05-08 13:26 31.72908 117.95352 35931 ft 577 kts 96°
2026-05-08 13:26 31.72566 118.00027 35477 ft 572 kts 96°
2026-05-08 13:27 31.72226 118.04656 35016 ft 567 kts 97°
2026-05-08 13:27 31.71886 118.09257 34572 ft 567 kts 97°
2026-05-08 13:27 31.71547 118.13884 34129 ft 569 kts 97°
2026-05-08 13:27 31.71221 118.18507 33618 ft 571 kts 97°
2026-05-08 13:28 31.70899 118.23173 33115 ft 571 kts 97°
2026-05-08 13:28 31.70579 118.27820 32619 ft 572 kts 97°
2026-05-08 13:28 31.70256 118.32486 32133 ft 573 kts 97°
2026-05-08 13:28 31.69929 118.37150 31667 ft 573 kts 97°
2026-05-08 13:29 31.69599 118.41812 31345 ft 572 kts 97°
2026-05-08 13:29 31.69267 118.46463 31278 ft 572 kts 97°
2026-05-08 13:29 31.68590 118.55830 31287 ft 578 kts 97°
2026-05-08 13:30 31.67910 118.65176 31282 ft 579 kts 97°
2026-05-08 13:30 31.67215 118.74636 31289 ft 584 kts 97°
2026-05-08 13:31 31.66508 118.84146 31282 ft 585 kts 97°
2026-05-08 13:31 31.65796 118.93671 31282 ft 585 kts 97°
2026-05-08 13:32 31.65070 119.03188 31260 ft 585 kts 97°
2026-05-08 13:32 31.64827 119.06401 31039 ft 586 kts 96°
2026-05-08 13:32 31.64524 119.12721 30314 ft 583 kts 95°
2026-05-08 13:33 31.64408 119.15859 29864 ft 578 kts 94°
2026-05-08 13:33 31.64222 119.20543 29207 ft 570 kts 94°
2026-05-08 13:33 31.64020 119.25153 28525 ft 563 kts 94°
2026-05-08 13:33 31.63806 119.29720 27765 ft 557 kts 94°
2026-05-08 13:34 31.63591 119.34233 27031 ft 552 kts 94°
2026-05-08 13:34 31.63380 119.38706 26316 ft 546 kts 94°
2026-05-08 13:34 31.63170 119.43133 25609 ft 541 kts 94°
2026-05-08 13:34 31.62961 119.47529 24915 ft 536 kts 93°
2026-05-08 13:35 31.62752 119.51872 24253 ft 530 kts 93°
2026-05-08 13:35 31.62543 119.56165 23560 ft 525 kts 93°
2026-05-08 13:35 31.62337 119.60429 22779 ft 519 kts 92°
2026-05-08 13:35 31.62132 119.64624 22089 ft 512 kts 92°
2026-05-08 13:36 31.61930 119.68749 21458 ft 497 kts 92°
2026-05-08 13:36 31.61744 119.72727 21092 ft 480 kts 92°
2026-05-08 13:36 31.61569 119.76585 20905 ft 472 kts 92°
2026-05-08 13:36 31.61396 119.80422 20898 ft 470 kts 92°
2026-05-08 13:37 31.61225 119.84246 20890 ft 469 kts 92°
2026-05-08 13:37 31.61052 119.88065 20890 ft 469 kts 92°
2026-05-08 13:37 31.60876 119.91887 20903 ft 469 kts 92°
2026-05-08 13:37 31.60698 119.95714 20892 ft 470 kts 92°
2026-05-08 13:38 31.60516 119.99542 20894 ft 471 kts 92°
2026-05-08 13:38 31.60336 120.03333 20892 ft 471 kts 92°
2026-05-08 13:38 31.60153 120.07169 20889 ft 471 kts 92°
2026-05-08 13:38 31.59969 120.11007 20896 ft 471 kts 92°
2026-05-08 13:39 31.59783 120.14843 20895 ft 471 kts 92°
2026-05-08 13:39 31.59597 120.18676 20897 ft 471 kts 92°
2026-05-08 13:39 31.59411 120.22506 20867 ft 471 kts 92°
2026-05-08 13:39 31.59222 120.26345 20465 ft 469 kts 92°
2026-05-08 13:40 31.59034 120.30139 19976 ft 462 kts 93°
2026-05-08 13:40 31.58599 120.33832 19484 ft 454 kts 104°
2026-05-08 13:40 31.57631 120.37312 19027 ft 442 kts 110°
2026-05-08 13:40 31.56584 120.40591 18437 ft 420 kts 110°
2026-05-08 13:41 31.55568 120.43733 17771 ft 402 kts 110°
2026-05-08 13:41 31.54608 120.46746 17105 ft 387 kts 109°
2026-05-08 13:41 31.53697 120.49665 16470 ft 375 kts 109°
2026-05-08 13:41 31.52829 120.52497 15858 ft 364 kts 109°
2026-05-08 13:42 31.51991 120.55257 15276 ft 354 kts 109°
2026-05-08 13:42 31.51183 120.57948 14644 ft 346 kts 108°
2026-05-08 13:42 31.50393 120.60588 14093 ft 339 kts 108°
2026-05-08 13:42 31.49619 120.63169 13447 ft 334 kts 109°
2026-05-08 13:43 31.48856 120.65719 12812 ft 328 kts 108°
2026-05-08 13:43 31.48110 120.68218 12185 ft 323 kts 109°
2026-05-08 13:43 31.47373 120.70671 11564 ft 317 kts 109°
2026-05-08 13:43 31.46644 120.73084 10957 ft 310 kts 109°
2026-05-08 13:44 31.45940 120.75431 10331 ft 301 kts 109°
2026-05-08 13:44 31.45269 120.77670 9806 ft 289 kts 109°
2026-05-08 13:44 31.44611 120.79858 9231 ft 280 kts 109°
2026-05-08 13:44 31.43965 120.81999 9036 ft 281 kts 109°
2026-05-08 13:45 31.43309 120.84171 8920 ft 282 kts 109°
2026-05-08 13:45 31.42573 120.86264 8827 ft 278 kts 118°
2026-05-08 13:45 31.41502 120.88165 8629 ft 282 kts 125°
2026-05-08 13:45 31.40319 120.90026 8361 ft 286 kts 126°
2026-05-08 13:46 31.39142 120.91859 8036 ft 276 kts 126°
2026-05-08 13:46 31.38020 120.93631 7767 ft 268 kts 125°
2026-05-08 13:46 31.36923 120.95394 7518 ft 269 kts 124°
2026-05-08 13:46 31.35821 120.97179 7267 ft 271 kts 124°
2026-05-08 13:47 31.34726 120.98977 6999 ft 271 kts 124°
2026-05-08 13:47 31.33634 121.00777 6761 ft 271 kts 125°
2026-05-08 13:47 31.32539 121.02577 6474 ft 270 kts 123°
2026-05-08 13:47 31.31452 121.04376 6242 ft 272 kts 124°
2026-05-08 13:48 31.30357 121.06195 5957 ft 273 kts 122°
2026-05-08 13:48 31.29275 121.07983 5902 ft 265 kts 124°
2026-05-08 13:48 31.28225 121.09721 5884 ft 261 kts 124°
2026-05-08 13:48 31.27183 121.11447 5936 ft 261 kts 124°
2026-05-08 13:49 31.26138 121.13173 5913 ft 259 kts 124°
2026-05-08 13:49 31.25099 121.14889 5930 ft 259 kts 124°
2026-05-08 13:49 31.24061 121.16611 5900 ft 258 kts 124°
2026-05-08 13:49 31.23041 121.18283 5886 ft 254 kts 124°
2026-05-08 13:50 31.22020 121.19971 5633 ft 254 kts 124°
2026-05-08 13:50 31.20988 121.21602 5318 ft 246 kts 132°
2026-05-08 13:50 31.19563 121.22630 4956 ft 241 kts 161°
2026-05-08 13:50 31.17925 121.22896 4546 ft 236 kts 176°
2026-05-08 13:51 31.16310 121.22969 4194 ft 230 kts 175°
2026-05-08 13:51 31.14721 121.23043 3843 ft 226 kts 174°
2026-05-08 13:51 31.13160 121.23128 3435 ft 223 kts 174°
2026-05-08 13:51 31.11633 121.23212 3090 ft 218 kts 174°
2026-05-08 13:52 31.10138 121.23293 2634 ft 211 kts 174°
2026-05-08 13:52 31.08698 121.23357 2351 ft 203 kts 174°
2026-05-08 13:52 31.07317 121.23436 2011 ft 192 kts 175°
2026-05-08 13:52 31.06022 121.23502 1977 ft 189 kts 174°
2026-05-08 13:53 31.04705 121.23572 1916 ft 188 kts 174°
2026-05-08 13:53 31.03422 121.23644 1833 ft 182 kts 174°
2026-05-08 13:53 31.02213 121.23893 1804 ft 174 kts 149°
2026-05-08 13:53 31.01412 121.24910 1815 ft 173 kts 113°
2026-05-08 13:54 31.01250 121.26289 1823 ft 174 kts 87°
2026-05-08 13:54 31.01316 121.27717 1830 ft 179 kts 89°
2026-05-08 13:54 31.01367 121.29151 1824 ft 174 kts 88°
2026-05-08 13:54 31.01419 121.30557 1819 ft 172 kts 89°
2026-05-08 13:55 31.01472 121.31962 1830 ft 175 kts 88°
2026-05-08 13:55 31.01697 121.33343 1803 ft 176 kts 61°
2026-05-08 13:55 31.03909 121.34361 1838 ft 188 kts
2026-05-08 13:56 31.05204 121.34395 1839 ft 189 kts
2026-05-08 13:56 31.06506 121.34347 1817 ft 182 kts
2026-05-08 13:56 31.07722 121.34280 1802 ft 168 kts
2026-05-08 13:56 31.08871 121.34217 1825 ft 165 kts
2026-05-08 13:57 31.09997 121.34159 1707 ft 160 kts
2026-05-08 13:57 31.11058 121.34100 1493 ft 145 kts
2026-05-08 13:57 31.12071 121.34045 1306 ft 147 kts
2026-05-08 13:57 31.13095 121.33991 1102 ft 147 kts
2026-05-08 13:58 31.14117 121.33936 903 ft 147 kts
2026-05-08 13:58 31.15137 121.33884 691 ft 147 kts 359°
2026-05-08 13:58 31.16164 121.33827 495 ft 148 kts 359°
2026-05-08 13:58 31.17188 121.33765 302 ft 148 kts 359°
2026-05-08 13:59 31.18219 121.33715 91 ft 147 kts 359°
2026-05-08 13:59 31.19203 121.33662 28 ft 128 kts 357°
2026-05-08 13:59 31.19910 121.33623 26 ft 75 kts 357°
2026-05-08 13:59 31.20255 121.33577 25 ft 40 kts 340°
2026-05-08 14:00 31.20360 121.33516 26 ft 0 kts 329°